Location: Angwan Shehu
(11.2514°N, 7.4613°E)
Time: 06:46:16
(UTC+00:00)

SR - Pass Details

Date: 14 April 2021
Orbit: 573 x 882 km, 66.7° (Epoch: 12 May)

Event Time Altitude Azimuth Distance (km) Brightness Sun altitude
Rises 18:37:11 0° 332° (NNW) 3,331 ? -14.2°
Reaches altitude 10° 18:39:45 10° 328° (NNW) 2,356 ? -14.8°
Maximum altitude 18:45:01 55° 252° (WSW) 889 ? -16.1°
Drops below altitude 10° 18:49:49 10° 174° (S) 2,154 ? -17.2°
Enters shadow 18:51:31 - 170° (S) 2,802 ? -17.6°
Sets 18:52:05 0° 169° (S) 3,021 - -17.7°
